Regional Weather Roundup
Issued by NWS Goodland, KS

Home | Current Version | Previous Version | Graphics & Text | Print | Product List | Glossary On
Versions: 1 2 3 4 5 6 7 8 9 10 11 12 13 14 15 16 17 18 19 20 21 22 23 24 25 26 27 28 29 30 31 32 33 34 35 36 37 38 39 40 41 42 43 44 45 46 47 48 49 50
000
ASUS43 KGLD 271808
RWRGLD

GOODLAND FORECAST AREA HOURLY WEATHER ROUNDUP
NATIONAL WEATHER SERVICE GOODLAND KS
1200 PM MDT WED AUG 27 2014

...OFFICIAL OBSERVATIONS...

CITY           SKY/WX    TMP DP  RH WIND       PRES   REMARKS
GOODLAND KS    CLOUDY    75  64  68 S15G24    30.12F
HILL CITY KS   PTSUNNY   79  63  57 E7        30.10F
IMPERIAL NEB   CLOUDY    75  64  68 S16       30.10F
MCCOOK NEB     PTSUNNY   77  65  66 SE10      30.11F
AKRON CO       PTSUNNY   72  60  66 S18G26    30.13S
BURLINGTON CO  PTSUNNY   73  62  68 S16       30.12F
LIMON CO       MOSUNNY   71  56  58 S8        30.16F
$$

...UNOFFICIAL OBSERVATIONS...

CITY           SKY/WX    TMP DP  RH WIND       PRES   REMARKS
COLBY KS       CLOUDY    75  70  83 S13       30.13F
GOVE KS          N/A     83  32  16 CALM        N/A
NORTON KS      CLOUDY    79  59  50 E7        30.10
SHARON SPRINGS   N/A     73  67  83 SE8         N/A
WAKEENEY KS      N/A     82  60  46 MISG        N/A
KIT CARSON CO    N/A     73  63  70 MISG        N/A
YUMA CO          N/A     73  61  65 S12G18      N/A
$$


USA.gov is the U.S. government's official web portal to all federal, state and local government web resources and services.